| time (UTC) | temp F | wind direction | speed MPH | gust MPH | rain 1hr in | rain 24hr in | rain mn in | humidity % | barometer mb |
| 20260508125359 | 52 | 311 | 12.0 | 16.0 | 0.00 | 0.00 | 0.00 | 69 | 1012.3 |
| 20260508124358 | 52 | 323 | 9.0 | 14.0 | 0.00 | 0.00 | 0.00 | 69 | 1012.3 |
| 20260508123357 | 52 | 322 | 9.0 | 14.0 | 0.00 | 0.00 | 0.00 | 70 | 1012.4 |
| 20260508122356 | 51 | 304 | 7.0 | 12.0 | 0.00 | 0.00 | 0.00 | 71 | 1012.4 |
| 20260508121355 | 50 | 315 | 7.0 | 13.0 | 0.00 | 0.00 | 0.00 | 71 | 1012.0 |
| 20260508120354 | 49 | 302 | 5.0 | 11.0 | 0.00 | 0.00 | 0.00 | 73 | 1012.0 |
| 20260508115321 | 49 | 288 | 6.0 | 10.0 | 0.00 | 0.00 | 0.00 | 75 | 1012.0 |
| 20260508114321 | 48 | 278 | 5.0 | 10.0 | 0.00 | 0.00 | 0.00 | 78 | 1011.6 |
| 20260508113320 | 47 | 264 | 4.0 | 9.0 | 0.00 | 0.00 | 0.00 | 79 | 1011.3 |
| 20260508112146 | 46 | 267 | 4.0 | 8.0 | 0.00 | 0.00 | 0.00 | 81 | 1011.6 |
| 20260508111145 | 46 | 271 | 4.0 | 8.0 | 0.00 | 0.00 | 0.00 | 81 | 1011.6 |
| 20260508110144 | 46 | 267 | 4.0 | 8.0 | 0.00 | 0.00 | 0.00 | 81 | 1011.3 |
| 20260508105143 | 47 | 278 | 4.0 | 6.0 | 0.00 | 0.00 | 0.00 | 80 | 1011.3 |
| 20260508104143 | 46 | 278 | 3.0 | 10.0 | 0.00 | 0.00 | 0.00 | 82 | 1011.3 |
| 20260508103142 | 47 | 281 | 5.0 | 15.0 | 0.00 | 0.00 | 0.00 | 79 | 1011.4 |
| 20260508102141 | 48 | 304 | 7.0 | 20.0 | 0.00 | 0.00 | 0.00 | 78 | 1011.4 |
| 20260508101109 | 48 | 298 | 16.0 | 21.0 | 0.00 | 0.00 | 0.00 | 75 | 1011.1 |
| 20260508100037 | 49 | 296 | 12.0 | 19.0 | 0.00 | 0.00 | 0.00 | 75 | 1011.8 |
| 20260508095036 | 49 | 291 | 12.0 | 19.0 | 0.00 | 0.00 | 0.00 | 72 | 1011.8 |
| 20260508094035 | 48 | 293 | 6.0 | 10.0 | 0.00 | 0.00 | 0.00 | 74 | 1011.8 |
| 20260508093035 | 48 | 284 | 4.0 | 9.0 | 0.00 | 0.00 | 0.00 | 75 | 1011.4 |
| 20260508092034 | 48 | 288 | 4.0 | 9.0 | 0.00 | 0.00 | 0.00 | 75 | 1011.4 |
| 20260508091033 | 48 | 298 | 4.0 | 10.0 | 0.00 | 0.00 | 0.00 | 75 | 1011.8 |
| 20260508090032 | 48 | 300 | 5.0 | 10.0 | 0.00 | 0.00 | 0.00 | 75 | 1011.4 |
| 20260508085031 | 47 | 283 | 5.0 | 8.0 | 0.00 | 0.00 | 0.00 | 78 | 1011.3 |
| 20260508084030 | 46 | 291 | 4.0 | 9.0 | 0.00 | 0.00 | 0.00 | 77 | 1011.7 |
| 20260508083030 | 46 | 288 | 5.0 | 10.0 | 0.00 | 0.00 | 0.00 | 78 | 1011.7 |
| 20260508082029 | 45 | 287 | 4.0 | 8.0 | 0.00 | 0.00 | 0.00 | 79 | 1012.0 |
| 20260508081028 | 45 | 282 | 4.0 | 10.0 | 0.00 | 0.00 | 0.00 | 80 | 1011.7 |
| 20260508080027 | 45 | 286 | 4.0 | 10.0 | 0.00 | 0.00 | 0.00 | 80 | 1011.6 |
| 20260508074924 | 45 | 266 | 6.0 | 9.0 | 0.00 | 0.00 | 0.00 | 80 | 1011.6 |
| 20260508073923 | 46 | 258 | 3.0 | 9.0 | 0.00 | 0.00 | 0.00 | 80 | 1011.6 |
| 20260508072922 | 46 | 279 | 5.0 | 10.0 | 0.00 | 0.00 | 0.00 | 79 | 1012.0 |
| 20260508071921 | 46 | 283 | 6.0 | 11.0 | 0.00 | 0.00 | 0.00 | 78 | 1012.0 |
| 20260508070920 | 46 | 278 | 8.0 | 12.0 | 0.00 | 0.00 | 0.00 | 78 | 1012.0 |
| 20260508065919 | 47 | 279 | 6.0 | 11.0 | 0.00 | 0.00 | 0.00 | 78 | 1012.1 |
| 20260508064917 | 47 | 290 | 6.0 | 15.0 | 0.00 | 0.00 | 0.00 | 76 | 1012.1 |
| 20260508063917 | 48 | 291 | 10.0 | 18.0 | 0.00 | 0.00 | 0.00 | 74 | 1012.1 |
| 20260508062916 | 48 | 288 | 9.0 | 24.0 | 0.00 | 0.00 | 0.00 | 74 | 1012.4 |
| 20260508061915 | 49 | 291 | 13.0 | 24.0 | 0.00 | 0.00 | 0.00 | 71 | 1011.7 |
| 20260508060843 | 49 | 272 | 11.0 | 18.0 | 0.00 | 0.00 | 0.00 | 68 | 1012.1 |
| 20260508055842 | 48 | 270 | 6.0 | 11.0 | 0.00 | 0.00 | 0.00 | 67 | 1012.0 |
| 20260508054841 | 48 | 273 | 6.0 | 10.0 | 0.00 | 0.00 | 0.00 | 70 | 1012.3 |
| 20260508053841 | 47 | 263 | 3.0 | 8.0 | 0.00 | 0.00 | 0.00 | 71 | 1012.3 |
| 20260508052738 | 47 | 256 | 3.0 | 5.0 | 0.00 | 0.00 | 0.00 | 73 | 1012.3 |
| 20260508051737 | 47 | 246 | 1.0 | 4.0 | 0.00 | 0.00 | 0.00 | 73 | 1012.6 |
| 20260508050736 | 47 | 235 | 2.0 | 4.0 | 0.00 | 0.00 | 0.00 | 72 | 1012.7 |
| 20260508045735 | 47 | 242 | 2.0 | 5.0 | 0.00 | 0.00 | 0.00 | 71 | 1012.7 |
| 20260508044734 | 46 | 256 | 2.0 | 5.0 | 0.00 | 0.00 | 0.00 | 72 | 1013.0 |
| 20260508043734 | 47 | 261 | 1.0 | 2.0 | 0.00 | 0.00 | 0.00 | 72 | 1012.7 |
| 20260508042733 | 47 | 261 | 1.0 | 5.0 | 0.00 | 0.00 | 0.00 | 70 | 1012.7 |
| 20260508041732 | 48 | 266 | 2.0 | 6.0 | 0.00 | 0.00 | 0.00 | 69 | 1012.7 |
| 20260508040700 | 48 | 266 | 4.0 | 6.0 | 0.00 | 0.00 | 0.00 | 68 | 1012.7 |
| 20260508035658 | 48 | 266 | 3.0 | 10.0 | 0.00 | 0.00 | 0.00 | 66 | 1012.7 |
| 20260508034657 | 49 | 285 | 3.0 | 10.0 | 0.00 | 0.00 | 0.00 | 65 | 1013.0 |
| 20260508033656 | 49 | 283 | 5.0 | 10.0 | 0.00 | 0.00 | 0.00 | 64 | 1013.0 |
| 20260508032655 | 49 | 288 | 4.0 | 13.0 | 0.00 | 0.00 | 0.00 | 63 | 1013.0 |
| 20260508031654 | 49 | 290 | 4.0 | 13.0 | 0.00 | 0.00 | 0.00 | 62 | 1013.0 |
| 20260508030654 | 49 | 288 | 5.0 | 13.0 | 0.00 | 0.00 | 0.00 | 61 | 1013.0 |
| 20260508025653 | 50 | 282 | 8.0 | 14.0 | 0.00 | 0.00 | 0.00 | 61 | 1013.0 |
| 20260508024652 | 50 | 297 | 9.0 | 16.0 | 0.00 | 0.00 | 0.00 | 59 | 1013.3 |
| 20260508023620 | 50 | 308 | 9.0 | 16.0 | 0.00 | 0.00 | 0.00 | 58 | 1013.3 |
| 20260508022619 | 50 | 293 | 7.0 | 14.0 | 0.00 | 0.00 | 0.00 | 56 | 1013.0 |
| 20260508021547 | 50 | 306 | 5.0 | 8.0 | 0.00 | 0.00 | 0.00 | 57 | 1013.0 |
| 20260508020545 | 50 | 296 | 2.0 | 9.0 | 0.00 | 0.00 | 0.00 | 58 | 1012.9 |
| 20260508015545 | 49 | 280 | 5.0 | 8.0 | 0.00 | 0.00 | 0.00 | 67 | 1012.6 |
| 20260508014544 | 49 | 282 | 2.0 | 7.0 | 0.00 | 0.00 | 0.00 | 67 | 1012.6 |
| 20260508013543 | 49 | 323 | 1.0 | 9.0 | 0.00 | 0.00 | 0.00 | 69 | 1012.5 |
| 20260508012542 | 48 | 201 | 5.0 | 9.0 | 0.00 | 0.00 | 0.00 | 69 | 1012.1 |
| 20260508011541 | 48 | 18 | 0.0 | 1.0 | 0.00 | 0.00 | 0.00 | 73 | 1012.1 |
| 20260508010540 | 48 | 18 | 0.0 | 2.0 | 0.00 | 0.00 | 0.00 | 73 | 1012.1 |
| 20260508005539 | 49 | 18 | 2.0 | 2.0 | 0.00 | 0.00 | 0.00 | 62 | 1012.1 |
| 20260508004508 | 50 | 18 | 0.0 | 0.0 | 0.00 | 0.00 | 0.00 | 62 | 1011.8 |
| 20260508003507 | 51 | 18 | 0.0 | 2.0 | 0.00 | 0.00 | 0.00 | 56 | 1012.1 |
| 20260508002506 | 52 | 18 | 2.0 | 4.0 | 0.00 | 0.00 | 0.00 | 56 | 1011.8 |
| 20260508001506 | 53 | 16 | 1.0 | 4.0 | 0.00 | 0.00 | 0.00 | 57 | 1011.8 |
| 20260508000434 | 54 | 22 | 2.0 | 4.0 | 0.00 | 0.00 | 0.00 | 50 | 1011.8 |
| 20260507235433 | 54 | 14 | 1.0 | 8.0 | 0.00 | 0.00 | 0.00 | 49 | 1011.8 |
| 20260507234432 | 54 | 27 | 4.0 | 9.0 | 0.00 | 0.00 | 0.00 | 47 | 1011.8 |
| 20260507233431 | 55 | 36 | 4.0 | 12.0 | 0.00 | 0.00 | 0.00 | 46 | 1011.8 |
| 20260507232430 | 55 | 3 | 5.0 | 12.0 | 0.00 | 0.00 | 0.00 | 48 | 1011.8 |
| 20260507231429 | 56 | 30 | 5.0 | 11.0 | 0.00 | 0.00 | 0.00 | 46 | 1011.8 |
| 20260507230428 | 55 | 7 | 4.0 | 11.0 | 0.00 | 0.00 | 0.00 | 47 | 1011.8 |
| 20260507225428 | 54 | 358 | 7.0 | 15.0 | 0.00 | 0.00 | 0.00 | 49 | 1011.7 |
| 20260507224427 | 56 | 354 | 4.0 | 16.0 | 0.00 | 0.00 | 0.00 | 44 | 1012.1 |
| 20260507223426 | 56 | 346 | 10.0 | 16.0 | 0.00 | 0.00 | 0.00 | 43 | 1011.8 |
| 20260507222426 | 57 | 14 | 9.0 | 14.0 | 0.00 | 0.00 | 0.00 | 40 | 1011.8 |
| 20260507221425 | 57 | 336 | 8.0 | 16.0 | 0.00 | 0.00 | 0.00 | 47 | 1011.8 |
| 20260507220424 | 57 | 351 | 10.0 | 16.0 | 0.00 | 0.00 | 0.00 | 43 | 1011.8 |
| 20260507215424 | 57 | 348 | 8.0 | 18.0 | 0.00 | 0.00 | 0.00 | 44 | 1011.9 |
| 20260507214422 | 57 | 356 | 12.0 | 18.0 | 0.00 | 0.00 | 0.00 | 43 | 1011.9 |
| 20260507213350 | 57 | 13 | 12.0 | 16.0 | 0.00 | 0.00 | 0.00 | 46 | 1011.9 |
| 20260507212349 | 57 | 8 | 11.0 | 18.0 | 0.00 | 0.00 | 0.00 | 44 | 1011.9 |
| 20260507211348 | 58 | 15 | 10.0 | 18.0 | 0.00 | 0.00 | 0.00 | 42 | 1011.9 |
| 20260507210347 | 57 | 355 | 10.0 | 17.0 | 0.00 | 0.00 | 0.00 | 45 | 1011.9 |
| 20260507205346 | 56 | 8 | 9.0 | 19.0 | 0.00 | 0.00 | 0.00 | 42 | 1011.8 |
| 20260507204345 | 57 | 359 | 10.0 | 19.0 | 0.00 | 0.00 | 0.00 | 44 | 1011.5 |
| 20260507203344 | 58 | 353 | 8.0 | 21.0 | 0.00 | 0.00 | 0.00 | 51 | 1011.6 |
| 20260507202343 | 57 | 336 | 10.0 | 21.0 | 0.00 | 0.00 | 0.00 | 45 | 1011.5 |
| 20260507201340 | 58 | 326 | 12.0 | 18.0 | 0.00 | 0.00 | 0.00 | 44 | 1011.5 |
| 20260507200340 | 55 | 359 | 10.0 | 18.0 | 0.00 | 0.00 | 0.00 | 46 | 1011.4 |
| 20260507195339 | 54 | 351 | 12.0 | 19.0 | 0.00 | 0.00 | 0.00 | 48 | 1011.4 |
| 20260507194338 | 55 | 333 | 13.0 | 19.0 | 0.00 | 0.00 | 0.00 | 50 | 1011.8 |
| 20260507193306 | 57 | 323 | 13.0 | 22.0 | 0.00 | 0.00 | 0.00 | 46 | 1011.9 |
| 20260507192306 | 57 | 322 | 12.0 | 22.0 | 0.00 | 0.00 | 0.00 | 49 | 1011.9 |
| 20260507191304 | 56 | 305 | 11.0 | 20.0 | 0.00 | 0.00 | 0.00 | 47 | 1011.9 |
| 20260507190232 | 57 | 318 | 9.0 | 20.0 | 0.00 | 0.00 | 0.00 | 49 | 1011.9 |
| 20260507185231 | 57 | 314 | 10.0 | 19.0 | 0.00 | 0.00 | 0.00 | 47 | 1012.2 |
| 20260507184231 | 57 | 315 | 10.0 | 18.0 | 0.00 | 0.00 | 0.00 | 49 | 1012.2 |
| 20260507183230 | 55 | 335 | 12.0 | 18.0 | 0.00 | 0.00 | 0.00 | 52 | 1012.2 |
| 20260507182228 | 55 | 314 | 5.0 | 19.0 | 0.00 | 0.00 | 0.00 | 55 | 1012.2 |
| 20260507181228 | 55 | 325 | 10.0 | 19.0 | 0.00 | 0.00 | 0.00 | 53 | 1012.2 |
| 20260507180226 | 55 | 322 | 8.0 | 16.0 | 0.00 | 0.00 | 0.00 | 49 | 1012.2 |
| 20260507175225 | 55 | 325 | 9.0 | 18.0 | 0.00 | 0.00 | 0.00 | 49 | 1012.1 |
| 20260507174224 | 55 | 338 | 11.0 | 18.0 | 0.00 | 0.00 | 0.00 | 52 | 1012.1 |
| 20260507173223 | 55 | 308 | 8.0 | 17.0 | 0.00 | 0.00 | 0.00 | 49 | 1012.2 |
| 20260507172223 | 55 | 331 | 10.0 | 15.0 | 0.00 | 0.00 | 0.00 | 51 | 1012.2 |
| 20260507171221 | 55 | 329 | 6.0 | 18.0 | 0.00 | 0.00 | 0.00 | 50 | 1012.5 |
| 20260507170221 | 56 | 337 | 11.0 | 18.0 | 0.00 | 0.00 | 0.00 | 52 | 1012.6 |
| 20260507165220 | 55 | 313 | 14.0 | 17.0 | 0.00 | 0.00 | 0.00 | 48 | 1012.5 |
| 20260507164219 | 55 | 302 | 10.0 | 15.0 | 0.00 | 0.00 | 0.00 | 50 | 1012.6 |
| 20260507163218 | 56 | 351 | 8.0 | 13.0 | 0.00 | 0.00 | 0.00 | 51 | 1012.3 |
| 20260507162146 | 56 | 345 | 8.0 | 13.0 | 0.00 | 0.00 | 0.00 | 50 | 1012.3 |
| 20260507161146 | 56 | 338 | 8.0 | 13.0 | 0.00 | 0.00 | 0.00 | 52 | 1012.3 |
| 20260507160145 | 55 | 5 | 7.0 | 14.0 | 0.00 | 0.00 | 0.00 | 53 | 1012.3 |
| 20260507155144 | 53 | 329 | 9.0 | 18.0 | 0.00 | 0.00 | 0.00 | 52 | 1012.5 |
| 20260507154143 | 54 | 336 | 10.0 | 18.0 | 0.00 | 0.00 | 0.00 | 54 | 1012.6 |
| 20260507153143 | 55 | 330 | 7.0 | 10.0 | 0.00 | 0.00 | 0.00 | 53 | 1012.6 |
| 20260507152142 | 55 | 323 | 6.0 | 10.0 | 0.00 | 0.00 | 0.00 | 55 | 1012.6 |
| 20260507151141 | 54 | 297 | 5.0 | 13.0 | 0.00 | 0.00 | 0.00 | 58 | 1012.6 |
| 20260507150141 | 54 | 343 | 7.0 | 13.0 | 0.00 | 0.00 | 0.00 | 61 | 1012.6 |
| 20260507145140 | 52 | 313 | 4.0 | 9.0 | 0.00 | 0.00 | 0.00 | 62 | 1012.5 |
| 20260507144139 | 52 | 283 | 6.0 | 10.0 | 0.00 | 0.00 | 0.00 | 66 | 1012.5 |
| 20260507143139 | 52 | 295 | 4.0 | 11.0 | 0.00 | 0.00 | 0.00 | 67 | 1012.5 |
| 20260507142004 | 52 | 321 | 3.0 | 10.0 | 0.00 | 0.00 | 0.00 | 65 | 1012.5 |
| 20260507141004 | 51 | 285 | 4.0 | 10.0 | 0.00 | 0.00 | 0.00 | 67 | 1012.5 |
| 20260507140003 | 51 | 340 | 5.0 | 10.0 | 0.00 | 0.00 | 0.00 | 68 | 1012.5 |
| 20260507135002 | 50 | 326 | 5.0 | 9.0 | 0.00 | 0.00 | 0.00 | 68 | 1012.8 |
| 20260507134001 | 49 | 322 | 4.0 | 9.0 | 0.00 | 0.00 | 0.00 | 69 | 1012.8 |
| 20260507133000 | 49 | 296 | 4.0 | 8.0 | 0.00 | 0.00 | 0.00 | 72 | 1012.8 |
| 20260507131959 | 48 | 314 | 4.0 | 9.0 | 0.00 | 0.00 | 0.00 | 72 | 1012.8 |
| 20260507130959 | 47 | 309 | 4.0 | 9.0 | 0.00 | 0.00 | 0.00 | 74 | 1012.7 |
| 20260507125958 | 47 | 307 | 6.0 | 9.0 | 0.00 | 0.00 | 0.00 | 74 | 1012.7 |